Skip Navigation Links weather.gov 
NOAA logo-Select to go to the NOAA homepage NDBC Title GraphicClick to go to NDBC home page   Select to go to the NWS homepage
Home About Us Contact Us
 
 
    
    Station List

 Data Access
    Mobile Access
    Classic Maps
         Recent
         DART®
    Obs Search
    Ship Obs Report
    BuoyCAMs
    TAO
    DODS
    OceanSITES
    HF Radar
    OSMC
    Dial-A-Buoy
    RSS Feeds Image indicating link to RSS feed access page
    Web Widget
    Web Data Guide
    Maintenance Schedule
    Station Status Report

 Program Info
    TAO
    DART®
    IOOS®

 Publications
    NDBC PEA
    NDBC FONSI
    NDBC DQC Handbook

 Visitor Information
 
USA.gov is the U.S. government's official web portal to all federal, state and local government web resources and services.

Station BLTM3 - 8447387 - Borden Flats Light at Fall River, MA Image indicating link to RSS feed of recent meteorological observations for station BLTM3

Owned and maintained by NOAA's National Ocean Service
C-MAN Station
41.704 N 71.174 W (41°42'16" N 71°10'28" W)

Site elevation: 2.1 m above mean sea level
Air temp height: 2.7 m above site elevation
Anemometer height: 16.2 m above site elevation

Latest NWS Marine Forecast

Search And Rescue (SAR) Data

Meteorological Observations from Nearby Stations and Ships Image indicating link to RSS feed of recent meteorological observations near station BLTM3

Regional HF Radar Surface Current Observations

Large icon indicates selected station.
yellow diamond Stations with recent data
red diamond Stations with no data in last 8 hours
     (24 hours for tsunami stations)


Conditions at BLTM3 as of
(4:18 pm EDT)
2018 GMT on 04/19/2019:
     

Click on the graph icon in the table below to see a time series plot of the last five days of that observation.

5-day plot - Wind Direction Wind Direction (WDIR): SSW ( 210 deg true )
5-day plot - Wind Speed Wind Speed (WSPD): 13 kts
5-day plot - Wind Gust Wind Gust (GST): 18 kts
5-day plot - Atmospheric Pressure Atmospheric Pressure (PRES): 29.85 in
5-day plot - Air Temperature Air Temperature (ATMP): 59.0 °F
5-day plot - Wind Speed at 10 Meters Wind Speed at 10 meters (WSPD10M): 14 kts
5-day plot - Wind Speed at 10 Meters Wind Speed at 20 meters (WSPD20M): 14 kts
5-day plot - Wind Speed, Wind Gust and Atmospheric Pressure Combined plot of Wind Speed, Gust, and Air Pressure
NOS Water Level Observation Network Water Level
Previous observations
5-day plot - Wind Direction 5-day plot - Wind Speed 5-day plot - Wind Gust 5-day plot - Wave Height 5-day plot - Dominant Wave Period 5-day plot - Average Period 5-day plot - Mean Wave Direction 5-day plot - Atmospheric Pressure 5-day plot - Pressure Tendency 5-day plot - Air Temperature 5-day plot - Water Temperature 5-day plot - Dew Point 5-day plot - Salinity 5-day plot - Visibility 5-day plot - Tide (above MLLW)
MM DD TIME
(EDT)
WDIR WSPD
kts
GST
kts
WVHT
ft
DPD
sec
APD
sec
MWD PRES
in
PTDY
in
ATMP
°F
WTMP
°F
DEWP
°F
SAL
psu
VIS
nmi
TIDE
ft
0419 4:12 pmSSW 14 19----29.85- 59.0-----
0419 4:06 pmSSW 14 19----29.85- 58.8-----
0419 4:00 pmSSW 16 24----29.85-0.01 59.0-----
0419 3:54 pmSSW 18 24----29.85- 58.8-----
0419 3:48 pmSSW 20 23----29.85- 57.4-----
0419 3:42 pm SW 19 23----29.85- 57.2-----
0419 3:36 pm SW 17 20----29.85- 57.6-----
0419 3:30 pmSSW 16 20----29.85- 58.5-----
0419 3:24 pmSSW 17 23----29.85- 59.4-----
0419 3:18 pmSSW 19 26----29.85- 59.5-----
0419 3:12 pmSSW 20 27----29.85- 59.0-----
0419 3:06 pmSSW 21 29----29.85- 59.4-----
0419 3:00 pmSSW 22 27----29.85-0.03 59.0-----
0419 2:54 pmSSW 20 24----29.85- 59.0-----
0419 2:48 pmSSW 21 25----29.85- 59.0-----
0419 2:42 pmSSW 21 25----29.85- 59.2-----
0419 2:36 pmSSW 20 23----29.85- 59.0-----
0419 2:30 pm SW 20 24----29.85- 58.6-----
0419 2:24 pmSSW 20 24----29.85- 59.4-----
0419 2:18 pmSSW 20 24----29.85- 59.7-----
0419 2:12 pmSSW 20 26----29.85- 59.7-----
0419 2:06 pmSSW 20 25----29.85- 59.9-----
0419 2:00 pmSSW 22 27----29.85-0.03 60.3-----
0419 1:54 pmSSW 22 30----29.85- 60.8-----
0419 1:48 pmSSW 20 26----29.85- 60.8-----
0419 1:42 pmSSW 20 25----29.85- 60.6-----
0419 1:36 pmSSW 21 29----29.86- 59.9-----
0419 1:30 pmSSW 21 24----29.86- 59.9-----
0419 1:24 pmSSW 19 25----29.86- 59.7-----
0419 1:18 pmSSW 18 25----29.87- 59.4-----
0419 1:12 pm SW 16 20----29.87- 59.2-----
0419 1:06 pmSSW 16 19----29.87- 60.1-----
0419 1:00 pmSSW 20 29----29.86+0.00 60.6-----
041912:54 pmSSW 22 28----29.86- 61.0-----
041912:48 pmSSW 22 30----29.86- 61.3-----
041912:42 pmSSW 22 31----29.86- 61.0-----
041912:36 pmSSW 22 28----29.86- 61.0-----
041912:30 pmSSW 24 30----29.87- 60.4-----
041912:24 pmSSW 24 30----29.87- 60.4-----
041912:18 pmSSW 25 31----29.87- 60.3-----
041912:12 pmSSW 23 30----29.87- 60.3-----
041912:06 pmSSW 24 30----29.87- 59.2-----
041912:00 pmSSW 24 28----29.87+0.00 59.2-----
041911:54 amSSW 25 29----29.88- 58.6-----
041911:48 amSSW 23 28----29.88- 59.5-----
041911:42 amSSW 24 30----29.88- 59.9-----
041911:36 amSSW 24 30----29.88- 60.1-----
041911:30 amSSW 24 29----29.88- 59.5-----
041911:24 am SW 20 25----29.88- 59.5-----
041911:18 amSSW 22 27----29.88- 59.9-----
041911:12 amSSW 20 25----29.88- 59.5-----
041911:06 amSSW 20 23----29.88- 59.2-----
041911:00 amSSW 24 27----29.88+0.00 59.2-----
041910:54 amSSW 26 31----29.88- 59.2-----
041910:48 amSSW 24 29----29.88- 58.6-----
041910:42 am SW 25 31----29.88- 58.1-----
041910:36 am SW 22 26----29.88- 58.3-----
041910:30 am SW 17 21----29.88- 58.1-----
041910:24 am SW 20 22----29.87- 57.6-----
041910:18 am SW 17 20----29.87- 57.7-----
041910:12 am SW 17 21----29.87- 58.8-----
041910:06 amSSW 18 22----29.87- 59.9-----
041910:00 amSSW 19 25----29.86-0.01 59.2-----
0419 9:54 amSSW 16 20----29.87- 59.0-----
0419 9:48 amSSW 17 22----29.87- 59.2-----
0419 9:42 amSSW 19 25----29.87- 58.8-----
0419 9:36 amSSW 18 23----29.87- 58.5-----
0419 9:30 amSSW 17 22----29.87- 58.1-----
0419 9:24 amSSW 16 19----29.87- 57.4-----
0419 9:18 amSSW 16 19----29.87- 57.6-----
0419 9:12 amSSW 15 19----29.87- 57.6-----
0419 9:06 amSSW 17 22----29.87- 57.6-----
0419 9:00 amSSW 19 22----29.87-0.01 57.6-----
0419 8:54 amSSW 18 21----29.87- 57.0-----
0419 8:48 amSSW 21 27----29.87- 57.6-----
0419 8:42 amSSW 22 27----29.87- 56.5-----
0419 8:36 amSSW 24 28----29.88- 56.7-----
0419 8:30 amSSW 25 30----29.88- 56.5-----
0419 8:24 amSSW 23 30----29.88- 56.8-----
0419 8:18 amSSW 21 25----29.88- 57.2-----
0419 8:12 amSSW 19 23----29.88- 56.8-----
0419 8:06 amSSW 17 21----29.88- 56.8-----
0419 8:00 amSSW 19 24----29.88+0.00 56.5-----
0419 7:54 amSSW 21 27----29.88- 56.8-----
0419 7:48 amSSW 19 23----29.88- 56.5-----
0419 7:42 amSSW 20 24----29.88- 56.7-----
0419 7:36 amSSW 20 27----29.88- 57.0-----
0419 7:30 amSSW 20 25----29.88- 56.8-----
0419 7:24 amSSW 19 25----29.88- 56.8-----
0419 7:18 amSSW 20 25----29.88- 57.0-----
0419 7:12 amSSW 19 25----29.88- 57.2-----
0419 7:06 amSSW 19 24----29.88- 57.2-----
0419 7:00 amSSW 21 27----29.88+0.00 57.2-----
0419 6:54 amSSW 20 26----29.88- 57.2-----
0419 6:48 amSSW 21 26----29.88- 57.2-----
0419 6:42 amSSW 21 26----29.88- 56.8-----
0419 6:36 amSSW 20 25----29.88- 56.7-----
0419 6:30 amSSW 21 26----29.88- 56.5-----
0419 6:24 amSSW 22 26----29.88- 56.7-----
0419 6:18 amSSW 22 27----29.88- 56.3-----
0419 6:12 amSSW 22 28----29.88- 56.3-----
0419 6:06 amSSW 22 28----29.88- 56.1-----
0419 6:00 am SW 24 28----29.88-0.02 56.3-----
0419 5:54 am SW 24 29----29.88- 56.7-----
0419 5:48 amSSW 25 30----29.88- 56.8-----
0419 5:42 amSSW 23 29----29.88- 57.0-----
0419 5:36 amSSW 19 24----29.88- 56.8-----
0419 5:30 amSSW 20 24----29.88- 56.5-----
0419 5:24 amSSW 21 28----29.88- 57.0-----
0419 5:18 amSSW 22 28----29.88- 57.2-----
0419 5:12 amSSW 22 27----29.88- 57.0-----
0419 5:06 amSSW 21 27----29.88- 57.0-----
0419 5:00 amSSW 23 28----29.88-0.04 57.0-----
0419 4:54 amSSW 23 30----29.88- 57.0-----
0419 4:48 amSSW 22 28----29.88- 57.2-----
0419 4:42 amSSW 24 31----29.87- 57.4-----
0419 4:36 amSSW 24 31----29.87- 57.2-----
0419 4:30 amSSW 23 31----29.88- 57.0-----
0419 4:24 amSSW 23 29----29.88- 56.8-----
0419 4:18 amSSW 23 30----29.88- 56.8-----
0419 4:12 amSSW 22 28----29.88- 56.8-----
0419 4:06 amSSW 21 25----29.88- 55.9-----
0419 4:00 amSSW 23 26----29.88-0.06 56.3-----
0419 3:54 amSSW 22 27----29.88- 56.1-----
0419 3:48 amSSW 21 25----29.88- 56.3-----
0419 3:42 amSSW 21 25----29.88- 55.8-----
0419 3:36 amSSW 19 26----29.89- 55.8-----
0419 3:30 amSSW 19 25----29.89- 55.8-----
0419 3:24 amSSW 18 23----29.89- 55.8-----
0419 3:18 amSSW 19 25----29.89- 55.8-----
0419 3:12 amSSW 19 23----29.89- 55.9-----
0419 3:06 amSSW 19 23----29.90- 55.8-----
0419 3:00 amSSW 17 20----29.90-0.03 55.8-----
0419 2:54 amSSW 16 19----29.90- 55.6-----
0419 2:48 amSSW 17 19----29.90- 55.6-----
0419 2:42 amSSW 16 21----29.90- 56.1-----
0419 2:36 amSSW 15 19----29.91- 56.1-----
0419 2:30 amSSW 15 20----29.91- 56.1-----
0419 2:24 amSSW 15 19----29.91- 55.9-----
0419 2:18 amSSW 15 19----29.91- 56.1-----
0419 2:12 amSSW 15 18----29.91- 55.9-----
0419 2:06 amSSW 17 20----29.91- 55.9-----
0419 2:00 amSSW 15 19----29.91-0.01 56.1-----
0419 1:54 amSSW 17 20----29.92- 55.8-----
0419 1:48 amSSW 15 18----29.92- 55.2-----
0419 1:42 amSSW 15 18----29.92- 55.2-----
0419 1:36 amSSW 16 19----29.92- 55.6-----
0419 1:30 amSSW 12 16----29.93- 55.8-----
0419 1:24 amSSW 12 15----29.93- 55.8-----
0419 1:18 amSSW 14 19----29.93- 55.9-----
0419 1:12 amSSW 14 18----29.93- 56.1-----
0419 1:06 amSSW 15 19----29.93- 55.9-----
0419 1:00 amSSW 15 22----29.93-0.01 56.3-----
041912:54 amSSW 17 24----29.93- 56.5-----
041912:48 amSSW 16 20----29.93- 56.5-----
041912:42 amSSW 17 23----29.93- 56.5-----
041912:36 amSSW 16 20----29.93- 56.7-----
041912:30 amSSW 19 25----29.93- 57.4-----
041912:24 amSSW 19 27----29.93- 57.7-----
041912:18 amSSW 21 32----29.94- 58.1-----
041912:12 amSSW 22 31----29.93- 58.6-----
041912:06 amSSW 22 32----29.93- 59.7-----
041912:00 amSSW 22 29----29.93-0.03 60.4-----
041811:54 pmSSW 23 30----29.93- 61.0-----
041811:48 pmSSW 23 30----29.93- 61.5-----
041811:42 pmSSW 20 27----29.93- 61.2-----
041811:36 pm S 21 31----29.93- 61.3-----
041811:30 pm S 23 30----29.93- 61.7-----
041811:24 pm S 20 30----29.93- 62.1-----
041811:18 pm S 23 31----29.93- 62.4-----
041811:12 pm S 22 35----29.93- 62.4-----
041811:06 pm S 20 27----29.93- 62.4-----
041811:00 pm S 20 28----29.93-0.05 61.9-----
041810:54 pm S 26 33----29.93- 62.2-----
041810:48 pm S 22 27----29.93- 62.2-----
041810:42 pm S 22 29----29.94- 62.1-----
041810:36 pm S 21 32----29.93- 62.2-----
041810:30 pm S 24 35----29.93- 62.6-----
041810:24 pm S 18 29----29.94- 61.7-----
041810:18 pm S 22 31----29.93- 61.7-----
041810:12 pm S 20 32----29.93- 62.1-----
041810:06 pm S 22 34----29.94- 61.7-----
041810:00 pm S 22 30----29.94-0.06 61.9-----
0418 9:54 pm S 22 30----29.95- 61.5-----
0418 9:48 pm S 21 31----29.95- 61.2-----
0418 9:42 pm S 22 31----29.95- 60.8-----
0418 9:36 pm S 20 29----29.96- 60.3-----
0418 9:30 pm S 20 26----29.96- 60.1-----
0418 9:24 pm S 19 31----29.96- 59.5-----
0418 9:18 pm S 17 27----29.96- 59.4-----
0418 9:12 pm S 18 32----29.96- 59.4-----
0418 9:06 pm S 18 25----29.96- 58.6-----
0418 9:00 pmSSE 20 24----29.96-0.07 57.6-----
0418 8:54 pmSSE 19 29----29.96- 57.2-----
0418 8:48 pmSSE 17 24----29.96- 56.7-----
0418 8:42 pmSSE 20 27----29.97- 56.7-----
0418 8:36 pmSSE 19 24----29.97- 56.5-----
0418 8:30 pmSSE 21 28----29.97- 56.7-----
0418 8:24 pmSSE 19 25----29.98- 56.5-----
0418 8:18 pmSSE 21 28----29.97- 56.5-----
0418 8:12 pmSSE 18 29----29.98- 56.5-----
0418 8:06 pmSSE 20 27----29.98- 56.1-----
0418 8:00 pmSSE 19 24----29.98-0.11 55.4-----
0418 7:54 pmSSE 21 32----29.98- 55.0-----
0418 7:48 pmSSE 20 28----29.98- 54.7-----
0418 7:42 pmSSE 20 28----29.99- 54.3-----
0418 7:36 pmSSE 19 26----29.99- 54.1-----
0418 7:30 pmSSE 22 31----29.98- 53.8-----
0418 7:24 pmSSE 20 30----29.98- 53.6-----
0418 7:18 pmSSE 23 32----29.99- 53.8-----
0418 7:12 pmSSE 21 30----30.00- 53.8-----
0418 7:06 pmSSE 23 33----30.00- 53.2-----
0418 7:00 pmSSE 21 31----30.01-0.12 53.2-----
0418 6:54 pmSSE 21 30----30.01- 53.1-----
0418 6:48 pmSSE 26 34----30.01- 53.4-----
0418 6:42 pmSSE 23 36----30.01- 53.2-----
0418 6:36 pmSSE 27 38----30.01- 53.1-----
0418 6:30 pmSSE 25 32----30.01- 52.9-----
0418 6:24 pmSSE 25 33----30.01- 52.9-----
0418 6:18 pmSSE 25 34----30.02- 52.9-----
0418 6:12 pmSSE 23 31----30.02- 52.7-----
0418 6:06 pmSSE 21 32----30.02- 52.5-----
0418 6:00 pmSSE 22 29----30.03-0.12 52.3-----
0418 5:54 pmSSE 21 29----30.03- 51.8-----
0418 5:48 pmSSE 19 27----30.04- 51.8-----
0418 5:42 pm SE 16 27----30.05- 51.4-----
0418 5:36 pm SE 15 22----30.06- 50.7-----
0418 5:30 pm SE 10 16----30.06- 50.2-----
0418 5:24 pmSSE 8 16----30.07- 49.8-----
0418 5:18 pmSSE 5 8----30.08- 49.3-----
0418 5:12 pmSSE 3 6----30.08- 49.3-----
0418 5:06 pmSSE 5 8----30.09- 49.1-----
0418 5:00 pmESE 3 8----30.09-0.11 48.9-----
0418 4:54 pm SE 8 13----30.09- 48.7-----
0418 4:48 pmSSE 6 12----30.10- 48.6-----
0418 4:42 pmSSE 6 11----30.10- 48.6-----
0418 4:36 pmSSE 10 17----30.11- 48.7-----
0418 4:30 pm SE 12 17----30.11- 48.7-----
0418 4:24 pm SE 11 18----30.11- 48.9-----
0418 4:18 pm SE 13 23----30.11- 48.6-----
0418 4:12 pm SE 11 17----30.12- 48.2-----
0418 4:06 pmSSE 10 18----30.12- 48.2-----
0418 4:00 pm SE 13 19----30.13-0.08 48.0-----
0418 3:54 pm SE 10 15----30.13- 48.2-----

Description of Measurements

Links which are specific to this station are listed below:

Real Time Data in tabular form for the last forty-five days.

Historical Data & Climatic Summaries for quality controlled data for the current month, previous months, and previous years.